Showing default

CHUANG XIN 16A (CX-16A), 53586

Orbit data source: Space-Track

CHUANG XIN 16A (CX-16A), 53586 is a payload satellite owned by IMI/CAS (CN) in LEO that was launched on Tue, 23 Aug 2022 UTC via a KUAIZHOU-1A launch vehicle from the Xichang Space Center, China (XSC). Payload-class satellites include a variety of spacecraft equipped with specific instruments for various scientific and technological missions. These include communications satellites like Starlink; space stations such as the ISS; scientific satellites like the Hubble; Earth observation satellites from companies like Planet Labs, Umbra, and HawkEye 360; GPS; miniature CubeSats for education and research; and military/defense satellites.

Loading next visibility...
Identifier
53586, 2022-102A
Orbit
LEO
Country
Flag of CNCN / PRC
Related business
Manufacturer
IMI/CAS
Mission
Operational Civil Technology
Bus & Motor
CX16, Unknown motor
Mass
100 kg wet, ~100 kg dry
Launch date (UTC)
2022-08-23 (4 years ago)
Launch vehicle
KUAIZHOU-1A
Launch site
Xichang Space Center, China (XSC)
Object type
Payload
Rocket body
Debris
Shape & HBR
Box + 1 Pan, 1.0 m
Radar Cross Section
0.763 m², Large (>1 m²)

Expand to show TLE details & history
Last TLE update: 21 hours ago

TLE from 21 hours ago
0 CHUANG XIN 16A (CX-16A)
1 53586U 22102A   26172.56487007  .00001400  00000-0  83328-4 0  9992
2 53586  28.9958 297.3618 0005072  58.5202 301.5893 15.05941228210180
Epoch: 2026-06-21T13:33Z
TLE epoch observation values (Epoch: 2026-06-21T13:33:24.774Z)
Latitude
0.00001°
Longitude
-175.75472°
Altitude
545.1 km
Speed
7.593 km/s
True Right ascension
19h 49m 26s
True Declination
0° 00' 00"
Sunlit
Object was in full shadow at epoch
Visualization orbit readout
Latitude
Unknown
Longitude
Unknown
Altitude
Unknown
Speed
Unknown
Apparent Right ascension
Unknown
Apparent Declination
Unknown
Sunlit
N/A
Visualization observer readout
Local Sidereal Time
21:38:30
Azimuth
Unknown
Elevation
Unknown
Doppler factor
Unknown
Orbital elements
Apogee altitude
556.257 km
Perigee altitude
549.226 km
Semi-major axis
6,930.878 km
Eccentricity
0.00051
Inclination
28.9958°
RAAN
297.3618°
Arg. of periapsis
58.5202°
True anomaly
301.53977°
Mean anomaly
301.5893°
Eccentric anomaly
301.56454°
Mean motion
3.7615 °/min
Orbital period
95.71 mins
BSTAR
0.000083328
Loading maneuver chart data...
Computing Atmospheric mass density...
Loading historical data...
Loading historical data...
Loading historical data...
Loading historical data...
Loading historical data...
Loading historical data...
Loading historical data...
Other satellites on launch #102 in the year 2022 (2022-08-23 UTC)

Documentation

Showing up to 5 results
|